Volver al catálogo

ARIANE 5 R/B

ActivoHEO
NORAD 33156·ROCKET BODY·🇫🇷 France

Lanzado Jul 7, 2008 desde Guiana Space Centre

Loading…

Próximos Pases (próximas 24 horas)

TLE

ActualizadoSource: Space-Track

Época: Sep 14, 2026, 04:13 UTC

1 33156U 08034D   26257.17618307  .00001020  00000-0  61360-3 0  9990
2 33156   1.9956  49.5547 7090551 202.2489  97.9249  2.50169563158199

Sigue ARIANE 5 R/B en tiempo real con AllMySat

Download on the App Store